Find Starlink 32481

NORAD ID: 62320 Int'l Des: 2024-239 Owner: SPXS Country: US Constellation: starlink operational
LEOCIRCULAR

現在のビュー

3D地球を読み込み中...

About Starlink 32481

Starlink 32481 (NORAD 62320) is a starlink constellation satellite (v2 mini) launched Dec 13, 2024 by SPXS of US. It operates in LEO, CIRCULAR orbit with a mass of 730.00 kg.

次回通過

Passes for default location (London). Set your location on the main map for personalized predictions.

高度履歴

Loading altitude history...

軌道要素

1 62320U 24239V 26235.08519208 .00016103 00000-0 55458-3 0 9995
2 62320 53.1579 127.9726 0001071 94.5852 265.5271 15.30203391 95044
Epoch: Aug 23, 2026 • Age: 29 hours

現在のステータス

高度 480.5 km
遠地点 / 近地点 N/A
速度 7.63 km/s
衛星直下点 51.38°N, 119.81°E
打ち上げ日 Dec 13, 2024
運用期間 1.6 years
タイプ internet

技術仕様

分類 Payload
質量 730.00 kg
乾燥質量 700.00 kg
総質量 730.00 kg
長さ 0.30 m
直径 4.10 m
スパン 29.00 m
形状 Box + pan
製造者 SPXS
バスタイプ Starlink V2M
フェーズステータス In Orbit
所有者/国 SPXS/US

Most Searched